Time,TemperatureF,DewpointF,PressureIn,WindDirection,WindDirectionDegrees,WindSpeedMPH,WindSpeedGustMPH,Humidity,HourlyPrecipIn,Conditions,Clouds,dailyrainin,SoftwareType,DateUTC
2013-01-11 00:01:00,23.4,15.4,30.23,North,351,0.0,0.0,71,0.00,,,0.00,VWS V13.00,2013-01-11 05:01:00,
2013-01-11 00:03:00,23.4,15.4,30.23,North,351,0.0,0.0,71,0.00,,,0.00,VWS V13.00,2013-01-11 05:03:00,
2013-01-11 00:08:00,23.4,15.4,30.23,North,351,0.0,0.0,71,0.00,,,0.00,VWS V13.00,2013-01-11 05:08:00,
2013-01-11 00:13:00,23.5,15.5,30.23,North,351,0.0,0.0,71,0.00,,,0.00,VWS V13.00,2013-01-11 05:13:00,
2013-01-11 00:18:00,23.5,15.5,30.23,NNW,345,0.0,0.0,71,0.00,,,0.00,VWS V13.00,2013-01-11 05:18:00,
2013-01-11 00:23:00,23.5,15.5,30.23,North,351,0.0,0.0,71,0.00,,,0.00,VWS V13.00,2013-01-11 05:23:00,
2013-01-11 00:28:00,23.4,15.4,30.23,NNW,330,0.0,0.0,71,0.00,,,0.00,VWS V13.00,2013-01-11 05:28:00,
2013-01-11 00:33:00,23.4,15.4,30.23,North,351,0.0,0.0,71,0.00,,,0.00,VWS V13.00,2013-01-11 05:33:00,
2013-01-11 00:38:00,23.5,15.5,30.23,NNW,331,0.0,0.0,71,0.00,,,0.00,VWS V13.00,2013-01-11 05:38:00,
2013-01-11 00:43:00,23.7,15.7,30.23,NNW,327,0.0,0.0,71,0.00,,,0.00,VWS V13.00,2013-01-11 05:43:00,
2013-01-11 00:49:00,23.7,15.7,30.23,NNW,328,0.0,0.0,71,0.00,,,0.00,VWS V13.00,2013-01-11 05:49:00,
2013-01-11 00:54:00,23.4,15.0,30.23,NNW,343,0.0,0.0,70,0.00,,,0.00,VWS V13.00,2013-01-11 05:54:00,
2013-01-11 00:59:00,23.2,14.9,30.20,NNW,329,0.0,0.0,70,0.00,,,0.00,VWS V13.00,2013-01-11 05:59:00,
2013-01-11 01:04:00,23.0,14.7,30.20,NNW,336,0.0,0.0,70,0.00,,,0.00,VWS V13.00,2013-01-11 06:04:00,
2013-01-11 01:09:00,23.0,14.4,30.20,NNW,347,0.0,0.0,69,0.00,,,0.00,VWS V13.00,2013-01-11 06:09:00,
2013-01-11 01:14:00,23.0,14.7,30.20,NNW,328,0.0,0.0,70,0.00,,,0.00,VWS V13.00,2013-01-11 06:14:00,
2013-01-11 01:19:00,23.0,14.7,30.20,North,351,0.0,0.0,70,0.00,,,0.00,VWS V13.00,2013-01-11 06:19:00,
2013-01-11 01:24:00,23.0,14.7,30.20,NNW,329,0.0,0.0,70,0.00,,,0.00,VWS V13.00,2013-01-11 06:24:00,
2013-01-11 01:29:00,22.8,14.5,30.20,North,351,0.0,0.0,70,0.00,,,0.00,VWS V13.00,2013-01-11 06:29:00,
2013-01-11 01:34:00,23.0,14.7,30.20,North,351,0.0,0.0,70,0.00,,,0.00,VWS V13.00,2013-01-11 06:34:00,
2013-01-11 01:39:00,23.0,15.0,30.20,North,351,0.0,0.0,71,0.00,,,0.00,VWS V13.00,2013-01-11 06:39:00,
2013-01-11 01:44:00,22.8,14.5,30.20,NNW,335,0.0,0.0,70,0.00,,,0.00,VWS V13.00,2013-01-11 06:44:00,
2013-01-11 01:49:00,22.8,14.5,30.20,NNW,340,0.0,0.0,70,0.00,,,0.00,VWS V13.00,2013-01-11 06:49:00,
2013-01-11 01:54:00,22.8,14.5,30.20,NNW,343,0.0,0.0,70,0.00,,,0.00,VWS V13.00,2013-01-11 06:54:00,
2013-01-11 01:59:00,22.6,14.3,30.20,North,351,0.0,0.0,70,0.00,,,0.00,VWS V13.00,2013-01-11 06:59:00,
2013-01-11 02:04:00,22.6,14.3,30.20,NNW,339,0.0,0.0,70,0.00,,,0.00,VWS V13.00,2013-01-11 07:04:00,
2013-01-11 02:09:00,22.8,14.5,30.17,NNW,339,0.0,0.0,70,0.00,,,0.00,VWS V13.00,2013-01-11 07:09:00,
2013-01-11 02:14:00,22.8,14.5,30.17,North,351,0.0,0.0,70,0.00,,,0.00,VWS V13.00,2013-01-11 07:14:00,
2013-01-11 02:19:00,22.5,13.8,30.17,North,351,0.0,0.0,69,0.00,,,0.00,VWS V13.00,2013-01-11 07:19:00,
2013-01-11 02:24:00,22.3,13.7,30.17,NNW,342,0.0,0.0,69,0.00,,,0.00,VWS V13.00,2013-01-11 07:24:00,
2013-01-11 02:29:00,22.5,14.2,30.17,NNW,337,0.0,0.0,70,0.00,,,0.00,VWS V13.00,2013-01-11 07:29:00,
2013-01-11 02:34:00,22.5,14.2,30.17,NNW,341,0.0,0.0,70,0.00,,,0.00,VWS V13.00,2013-01-11 07:34:00,
2013-01-11 02:39:00,22.3,14.0,30.17,North,351,0.0,0.0,70,0.00,,,0.00,VWS V13.00,2013-01-11 07:39:00,
2013-01-11 02:44:00,22.3,14.0,30.17,North,351,0.0,0.0,70,0.00,,,0.00,VWS V13.00,2013-01-11 07:44:00,
2013-01-11 02:49:00,22.5,14.2,30.17,NNW,338,0.0,0.0,70,0.00,,,0.00,VWS V13.00,2013-01-11 07:49:00,
2013-01-11 02:54:00,22.6,14.3,30.17,North,351,0.0,0.0,70,0.00,,,0.00,VWS V13.00,2013-01-11 07:54:00,
2013-01-11 02:59:00,22.6,14.3,30.17,NNW,328,0.0,0.0,70,0.00,,,0.00,VWS V13.00,2013-01-11 07:59:00,
2013-01-11 03:04:00,22.8,14.5,30.17,NNW,331,0.0,0.0,70,0.00,,,0.00,VWS V13.00,2013-01-11 08:04:00,
2013-01-11 03:09:00,22.6,14.0,30.17,North,351,0.0,0.0,69,0.00,,,0.00,VWS V13.00,2013-01-11 08:09:00,
2013-01-11 03:14:00,22.3,13.7,30.17,NNW,328,0.0,0.0,69,0.00,,,0.00,VWS V13.00,2013-01-11 08:14:00,
2013-01-11 03:19:00,22.3,13.7,30.17,NNW,331,0.0,0.0,69,0.00,,,0.00,VWS V13.00,2013-01-11 08:19:00,
2013-01-11 03:24:00,22.5,13.8,30.14,NNW,338,0.0,0.0,69,0.00,,,0.00,VWS V13.00,2013-01-11 08:24:00,
2013-01-11 03:29:00,22.5,13.8,30.14,NNW,330,0.0,0.0,69,0.00,,,0.00,VWS V13.00,2013-01-11 08:29:00,
2013-01-11 03:34:00,22.6,14.0,30.14,North,351,0.0,0.0,69,0.00,,,0.00,VWS V13.00,2013-01-11 08:34:00,
2013-01-11 03:40:00,23.0,14.4,30.14,North,351,0.0,0.0,69,0.00,,,0.00,VWS V13.00,2013-01-11 08:40:00,
2013-01-11 03:45:00,23.0,14.4,30.14,NNW,330,0.0,0.0,69,0.00,,,0.00,VWS V13.00,2013-01-11 08:45:00,
2013-01-11 03:50:00,22.8,13.9,30.14,NNW,331,0.0,0.0,68,0.00,,,0.00,VWS V13.00,2013-01-11 08:50:00,
2013-01-11 03:55:00,22.8,14.2,30.14,North,351,0.0,0.0,69,0.00,,,0.00,VWS V13.00,2013-01-11 08:55:00,
2013-01-11 04:00:00,23.0,14.4,30.14,NNW,328,0.0,0.0,69,0.00,,,0.00,VWS V13.00,2013-01-11 09:00:00,
2013-01-11 04:05:00,23.4,14.7,30.14,North,351,0.0,0.0,69,0.00,,,0.00,VWS V13.00,2013-01-11 09:05:00,
2013-01-11 04:10:00,23.5,14.9,30.14,NNW,328,0.0,0.0,69,0.00,,,0.00,VWS V13.00,2013-01-11 09:10:00,
2013-01-11 04:15:00,23.7,14.7,30.14,NNW,347,0.0,0.0,68,0.00,,,0.00,VWS V13.00,2013-01-11 09:15:00,
2013-01-11 04:20:00,23.7,14.4,30.14,NNW,339,0.0,0.0,67,0.00,,,0.00,VWS V13.00,2013-01-11 09:20:00,
2013-01-11 04:25:00,23.7,14.4,30.11,NNW,344,0.0,0.0,67,0.00,,,0.00,VWS V13.00,2013-01-11 09:25:00,
2013-01-11 04:30:00,23.7,14.4,30.11,North,351,0.0,0.0,67,0.00,,,0.00,VWS V13.00,2013-01-11 09:30:00,
2013-01-11 04:35:00,23.5,13.9,30.11,NNW,328,0.0,0.0,66,0.00,,,0.00,VWS V13.00,2013-01-11 09:35:00,
2013-01-11 04:40:00,23.5,13.9,30.11,NNW,333,0.0,0.0,66,0.00,,,0.00,VWS V13.00,2013-01-11 09:40:00,
2013-01-11 04:45:00,23.5,13.9,30.11,North,351,0.0,0.0,66,0.00,,,0.00,VWS V13.00,2013-01-11 09:45:00,
2013-01-11 04:50:00,23.5,13.5,30.11,NNW,328,0.0,0.0,65,0.00,,,0.00,VWS V13.00,2013-01-11 09:50:00,
2013-01-11 04:55:00,23.4,13.0,30.11,North,351,0.0,0.0,64,0.00,,,0.00,VWS V13.00,2013-01-11 09:55:00,
2013-01-11 05:00:00,23.5,13.2,30.11,North,351,0.0,0.0,64,0.00,,,0.00,VWS V13.00,2013-01-11 10:00:00,
2013-01-11 05:05:00,23.5,12.8,30.11,North,351,0.0,0.0,63,0.00,,,0.00,VWS V13.00,2013-01-11 10:05:00,
2013-01-11 05:10:00,23.7,13.0,30.11,NNW,334,0.0,0.0,63,0.00,,,0.00,VWS V13.00,2013-01-11 10:10:00,
2013-01-11 05:15:00,23.9,13.1,30.11,North,351,0.0,0.0,63,0.00,,,0.00,VWS V13.00,2013-01-11 10:15:00,
2013-01-11 05:20:00,23.9,12.8,30.11,NNW,331,0.0,0.0,62,0.00,,,0.00,VWS V13.00,2013-01-11 10:20:00,
2013-01-11 05:25:00,23.9,12.8,30.11,North,351,0.0,0.0,62,0.00,,,0.00,VWS V13.00,2013-01-11 10:25:00,
2013-01-11 05:30:00,23.9,12.8,30.11,North,351,0.0,0.0,62,0.00,,,0.00,VWS V13.00,2013-01-11 10:30:00,
2013-01-11 05:35:00,23.9,13.1,30.11,NNW,336,0.0,0.0,63,0.00,,,0.00,VWS V13.00,2013-01-11 10:35:00,
2013-01-11 05:40:00,23.7,13.0,30.11,North,351,0.0,0.0,63,0.00,,,0.00,VWS V13.00,2013-01-11 10:40:00,
2013-01-11 05:45:00,23.5,12.8,30.11,NNW,338,0.0,0.0,63,0.00,,,0.00,VWS V13.00,2013-01-11 10:45:00,
2013-01-11 05:50:00,23.4,12.6,30.11,North,351,0.0,0.0,63,0.00,,,0.00,VWS V13.00,2013-01-11 10:50:00,
2013-01-11 05:55:00,23.2,12.5,30.11,NNW,342,0.0,0.0,63,0.00,,,0.00,VWS V13.00,2013-01-11 10:55:00,
2013-01-11 06:00:00,23.2,12.8,30.11,North,351,0.0,0.0,64,0.00,,,0.00,VWS V13.00,2013-01-11 11:00:00,
2013-01-11 06:05:00,23.2,12.8,30.11,NNW,332,0.0,0.0,64,0.00,,,0.00,VWS V13.00,2013-01-11 11:05:00,
2013-01-11 06:10:00,23.4,13.0,30.11,North,351,0.0,0.0,64,0.00,,,0.00,VWS V13.00,2013-01-11 11:10:00,
2013-01-11 06:15:00,23.5,13.2,30.11,North,351,0.0,0.0,64,0.00,,,0.00,VWS V13.00,2013-01-11 11:15:00,
2013-01-11 06:20:00,23.7,13.7,30.11,NNW,333,0.0,0.0,65,0.00,,,0.00,VWS V13.00,2013-01-11 11:20:00,
2013-01-11 06:25:00,23.9,13.9,30.11,NNW,328,0.0,0.0,65,0.00,,,0.00,VWS V13.00,2013-01-11 11:25:00,
2013-01-11 06:30:00,23.7,13.7,30.11,North,351,0.0,0.0,65,0.00,,,0.00,VWS V13.00,2013-01-11 11:30:00,
2013-01-11 06:35:00,23.9,13.9,30.11,NNW,330,0.0,0.0,65,0.00,,,0.00,VWS V13.00,2013-01-11 11:35:00,
2013-01-11 06:40:00,23.7,13.7,30.11,NNW,333,0.0,0.0,65,0.00,,,0.00,VWS V13.00,2013-01-11 11:40:00,
2013-01-11 06:45:00,23.7,14.0,30.11,NNW,345,0.0,0.0,66,0.00,,,0.00,VWS V13.00,2013-01-11 11:45:00,
2013-01-11 06:51:00,23.7,14.4,30.11,NNW,328,0.0,0.0,67,0.00,,,0.00,VWS V13.00,2013-01-11 11:51:00,
2013-01-11 06:55:00,23.9,14.6,30.11,NNW,337,0.0,0.0,67,0.00,,,0.00,VWS V13.00,2013-01-11 11:55:00,
2013-01-11 07:01:00,23.9,14.6,30.11,North,351,0.0,0.0,67,0.00,,,0.00,VWS V13.00,2013-01-11 12:01:00,
2013-01-11 07:06:00,23.9,14.9,30.11,NNW,329,0.0,0.0,68,0.00,,,0.00,VWS V13.00,2013-01-11 12:06:00,
2013-01-11 07:11:00,23.9,14.9,30.11,North,351,0.0,0.0,68,0.00,,,0.00,VWS V13.00,2013-01-11 12:11:00,
2013-01-11 07:16:00,23.9,14.9,30.11,North,351,0.0,0.0,68,0.00,,,0.00,VWS V13.00,2013-01-11 12:16:00,
2013-01-11 07:21:00,24.1,15.4,30.11,North,351,0.0,0.0,69,0.00,,,0.00,VWS V13.00,2013-01-11 12:21:00,
2013-01-11 07:26:00,24.3,15.6,30.11,North,351,0.0,0.0,69,0.00,,,0.00,VWS V13.00,2013-01-11 12:26:00,
2013-01-11 07:31:00,24.3,15.6,30.11,North,351,0.0,0.0,69,0.00,,,0.00,VWS V13.00,2013-01-11 12:31:00,
2013-01-11 07:36:00,24.4,15.4,30.11,North,351,0.0,0.0,68,0.00,,,0.00,VWS V13.00,2013-01-11 12:36:00,
2013-01-11 07:41:00,24.4,15.4,30.09,NE,46,0.0,0.0,68,0.00,,,0.00,VWS V13.00,2013-01-11 12:41:00,
2013-01-11 07:46:00,24.6,15.2,30.09,NE,46,0.0,0.0,67,0.00,,,0.00,VWS V13.00,2013-01-11 12:46:00,
2013-01-11 07:51:00,25.2,15.4,30.09,NE,46,0.0,0.0,66,0.00,,,0.00,VWS V13.00,2013-01-11 12:51:00,
2013-01-11 07:56:00,25.5,15.1,30.09,NNE,28,0.0,0.0,64,0.00,,,0.00,VWS V13.00,2013-01-11 12:56:00,
2013-01-11 08:01:00,25.5,14.7,30.09,North,351,0.0,0.0,63,0.00,,,0.00,VWS V13.00,2013-01-11 13:01:00,
2013-01-11 08:06:00,25.7,14.5,30.09,NNW,334,0.0,0.0,62,0.00,,,0.00,VWS V13.00,2013-01-11 13:06:00,
2013-01-11 08:11:00,25.9,14.3,30.09,South,175,0.0,0.0,61,0.00,,,0.00,VWS V13.00,2013-01-11 13:11:00,
2013-01-11 08:16:00,26.1,14.1,30.09,NNE,23,0.0,0.0,60,0.00,,,0.00,VWS V13.00,2013-01-11 13:16:00,
2013-01-11 08:21:00,26.2,14.3,30.09,NE,48,0.0,0.0,60,0.00,,,0.00,VWS V13.00,2013-01-11 13:21:00,
2013-01-11 08:26:00,27.0,13.4,30.09,NE,55,0.0,0.0,56,0.00,,,0.00,VWS V13.00,2013-01-11 13:26:00,
2013-01-11 08:31:00,28.8,10.6,30.09,SSW,198,0.0,0.0,46,0.00,,,0.00,VWS V13.00,2013-01-11 13:31:00,
2013-01-11 08:36:00,30.2,10.4,30.09,NE,55,0.0,0.0,43,0.00,,,0.00,VWS V13.00,2013-01-11 13:36:00,
2013-01-11 08:41:00,30.9,10.0,30.06,ENE,60,0.0,0.0,41,0.00,,,0.00,VWS V13.00,2013-01-11 13:41:00,
2013-01-11 08:46:00,31.5,9.9,30.06,West,281,0.0,0.0,40,0.00,,,0.00,VWS V13.00,2013-01-11 13:46:00,
2013-01-11 08:51:00,31.8,10.3,30.06,South,190,0.0,0.0,40,0.00,,,0.00,VWS V13.00,2013-01-11 13:51:00,
2013-01-11 08:56:00,31.5,11.0,30.06,SSW,197,0.0,0.0,42,0.00,,,0.00,VWS V13.00,2013-01-11 13:56:00,
2013-01-11 09:01:00,30.7,11.4,30.06,SSW,193,0.0,0.0,44,0.00,,,0.00,VWS V13.00,2013-01-11 14:01:00,
2013-01-11 09:06:00,30.4,12.1,30.06,South,189,0.0,0.0,46,0.00,,,0.00,VWS V13.00,2013-01-11 14:06:00,
2013-01-11 09:11:00,30.4,12.1,30.06,East,87,0.0,0.0,46,0.00,,,0.00,VWS V13.00,2013-01-11 14:11:00,
2013-01-11 09:16:00,31.5,11.6,30.06,NNE,28,0.0,0.0,43,0.00,,,0.00,VWS V13.00,2013-01-11 14:16:00,
2013-01-11 09:21:00,32.2,11.1,30.06,SSE,154,0.0,4.9,41,0.00,,,0.00,VWS V13.00,2013-01-11 14:21:00,
2013-01-11 09:26:00,33.4,10.0,30.06,East,82,0.0,4.9,37,0.00,,,0.00,VWS V13.00,2013-01-11 14:26:00,
2013-01-11 09:32:00,34.0,9.9,30.06,ESE,108,0.0,4.9,36,0.00,,,0.00,VWS V13.00,2013-01-11 14:32:00,
2013-01-11 09:37:00,34.5,9.7,30.06,ESE,114,0.0,4.9,35,0.00,,,0.00,VWS V13.00,2013-01-11 14:37:00,
2013-01-11 09:42:00,35.4,8.5,30.03,SE,129,0.0,0.0,32,0.00,,,0.00,VWS V13.00,2013-01-11 14:42:00,
2013-01-11 09:47:00,36.1,8.4,30.03,SSE,148,0.0,0.0,31,0.04,,,0.04,VWS V13.00,2013-01-11 14:47:00,
2013-01-11 09:52:00,37.0,8.5,30.03,SSE,162,0.0,3.6,30,0.04,,,0.04,VWS V13.00,2013-01-11 14:52:00,
2013-01-11 09:57:00,37.0,8.5,30.03,SSE,155,0.0,3.6,30,0.04,,,0.04,VWS V13.00,2013-01-11 14:57:00,
2013-01-11 10:02:00,37.2,7.9,30.03,SSW,194,0.0,0.0,29,0.04,,,0.04,VWS V13.00,2013-01-11 15:02:00,
2013-01-11 10:07:00,37.2,9.4,30.03,West,272,0.0,0.0,31,0.04,,,0.04,VWS V13.00,2013-01-11 15:07:00,
2013-01-11 10:12:00,37.0,8.5,30.03,SW,216,0.0,0.0,30,0.04,,,0.04,VWS V13.00,2013-01-11 15:12:00,
2013-01-11 10:17:00,36.9,9.1,30.03,West,277,0.0,0.0,31,0.04,,,0.04,VWS V13.00,2013-01-11 15:17:00,
2013-01-11 10:22:00,36.5,8.8,30.03,South,174,0.0,0.0,31,0.04,,,0.04,VWS V13.00,2013-01-11 15:22:00,
2013-01-11 10:27:00,37.0,8.5,30.00,SE,130,0.0,3.6,30,0.04,,,0.04,VWS V13.00,2013-01-11 15:27:00,
2013-01-11 10:32:00,37.4,8.8,30.00,SW,218,0.0,3.6,30,0.04,,,0.04,VWS V13.00,2013-01-11 15:32:00,
2013-01-11 10:37:00,37.4,8.8,30.00,SE,131,0.0,3.6,30,0.04,,,0.04,VWS V13.00,2013-01-11 15:37:00,
2013-01-11 10:42:00,37.0,8.5,30.00,South,183,0.0,0.0,30,0.04,,,0.04,VWS V13.00,2013-01-11 15:42:00,
2013-01-11 10:47:00,37.0,8.5,30.00,SSE,159,0.0,0.0,30,0.04,,,0.04,VWS V13.00,2013-01-11 15:47:00,
2013-01-11 10:52:00,37.4,8.8,30.00,SSW,206,0.0,5.4,30,0.04,,,0.04,VWS V13.00,2013-01-11 15:52:00,
2013-01-11 10:57:00,37.9,8.5,30.00,South,189,0.0,5.4,29,0.04,,,0.04,VWS V13.00,2013-01-11 15:57:00,
2013-01-11 11:02:00,37.9,9.3,30.00,SE,137,0.0,0.0,30,0.00,,,0.04,VWS V13.00,2013-01-11 16:02:00,
2013-01-11 11:07:00,38.1,8.7,30.00,ESE,113,0.0,3.6,29,0.00,,,0.04,VWS V13.00,2013-01-11 16:07:00,
2013-01-11 11:12:00,37.9,10.0,30.00,SSW,198,0.0,3.6,31,0.00,,,0.04,VWS V13.00,2013-01-11 16:12:00,
2013-01-11 11:17:00,38.1,10.2,30.00,NNE,17,0.0,0.0,31,0.00,,,0.04,VWS V13.00,2013-01-11 16:17:00,
2013-01-11 11:22:00,38.1,8.7,30.00,SSW,200,0.0,0.0,29,0.00,,,0.04,VWS V13.00,2013-01-11 16:22:00,
2013-01-11 11:28:00,38.7,9.2,29.97,NNW,341,0.0,0.0,29,0.00,,,0.04,VWS V13.00,2013-01-11 16:28:00,
2013-01-11 11:33:00,38.7,9.9,29.97,ESE,110,0.0,0.0,30,0.00,,,0.04,VWS V13.00,2013-01-11 16:33:00,
2013-01-11 11:38:00,38.5,9.8,29.97,SE,133,0.0,0.0,30,0.00,,,0.04,VWS V13.00,2013-01-11 16:38:00,
2013-01-11 11:43:00,38.1,12.2,29.97,ESE,105,0.0,0.0,34,0.00,,,0.04,VWS V13.00,2013-01-11 16:43:00,
2013-01-11 11:48:00,37.4,15.9,29.97,East,98,0.0,0.0,41,0.00,,,0.04,VWS V13.00,2013-01-11 16:48:00,
2013-01-11 11:53:00,36.7,14.6,29.97,East,86,0.0,0.0,40,0.00,,,0.04,VWS V13.00,2013-01-11 16:53:00,
2013-01-11 11:58:00,36.9,15.4,29.97,ESE,106,0.0,0.0,41,0.00,,,0.04,VWS V13.00,2013-01-11 16:58:00,
2013-01-11 12:03:00,37.2,14.6,29.97,SSE,155,0.0,4.5,39,0.00,,,0.04,VWS V13.00,2013-01-11 17:03:00,
2013-01-11 12:08:00,37.9,13.4,29.97,NNE,31,0.0,4.5,36,0.00,,,0.04,VWS V13.00,2013-01-11 17:08:00,
2013-01-11 12:13:00,38.5,12.6,29.97,North,356,0.0,4.5,34,0.00,,,0.04,VWS V13.00,2013-01-11 17:13:00,
2013-01-11 12:18:00,39.2,11.8,29.97,NNW,337,0.0,0.0,32,0.00,,,0.04,VWS V13.00,2013-01-11 17:18:00,
2013-01-11 12:23:00,38.8,14.2,29.97,ESE,114,0.0,0.0,36,0.00,,,0.04,VWS V13.00,2013-01-11 17:23:00,
2013-01-11 12:28:00,38.5,13.2,29.94,SE,133,0.0,0.0,35,0.00,,,0.04,VWS V13.00,2013-01-11 17:28:00,
2013-01-11 12:33:00,38.5,11.2,29.94,North,8,0.0,2.7,32,0.00,,,0.04,VWS V13.00,2013-01-11 17:33:00,
2013-01-11 12:38:00,38.8,12.2,29.94,NNW,343,0.0,0.0,33,0.00,,,0.04,VWS V13.00,2013-01-11 17:38:00,
2013-01-11 12:43:00,38.8,11.5,29.94,NNE,30,0.0,0.0,32,0.00,,,0.04,VWS V13.00,2013-01-11 17:43:00,
2013-01-11 12:48:00,39.0,11.0,29.94,NNW,343,0.0,0.0,31,0.00,,,0.04,VWS V13.00,2013-01-11 17:48:00,
2013-01-11 12:53:00,39.4,10.5,29.94,WSW,251,0.0,4.0,30,0.00,,,0.04,VWS V13.00,2013-01-11 17:53:00,
2013-01-11 12:58:00,39.7,10.9,29.94,SE,134,0.0,0.0,30,0.00,,,0.04,VWS V13.00,2013-01-11 17:58:00,
2013-01-11 13:03:00,39.9,11.0,29.94,ENE,73,0.0,4.0,30,0.00,,,0.04,VWS V13.00,2013-01-11 18:03:00,
2013-01-11 13:08:00,39.9,11.0,29.94,ESE,116,0.0,6.7,30,0.00,,,0.04,VWS V13.00,2013-01-11 18:08:00,
2013-01-11 13:13:00,39.7,10.9,29.94,SSE,149,0.0,6.7,30,0.00,,,0.04,VWS V13.00,2013-01-11 18:13:00,
2013-01-11 13:18:00,39.7,10.1,29.94,SE,139,0.0,6.9,29,0.00,,,0.04,VWS V13.00,2013-01-11 18:18:00,
2013-01-11 13:23:00,39.7,10.9,29.94,ESE,110,0.0,6.9,30,0.00,,,0.04,VWS V13.00,2013-01-11 18:23:00,
2013-01-11 13:28:00,39.9,10.2,29.91,SSE,156,0.0,6.9,29,0.00,,,0.04,VWS V13.00,2013-01-11 18:28:00,
2013-01-11 13:33:00,39.9,11.0,29.91,SE,145,0.0,6.9,30,0.00,,,0.04,VWS V13.00,2013-01-11 18:33:00,
2013-01-11 13:38:00,39.9,10.2,29.91,SE,146,0.0,0.0,29,0.00,,,0.04,VWS V13.00,2013-01-11 18:38:00,
2013-01-11 13:43:00,40.3,10.6,29.91,SE,132,0.0,3.1,29,0.00,,,0.04,VWS V13.00,2013-01-11 18:43:00,
2013-01-11 13:48:00,40.3,10.6,29.91,SW,217,0.0,3.1,29,0.00,,,0.04,VWS V13.00,2013-01-11 18:48:00,
2013-01-11 13:54:00,40.5,10.7,29.91,ESE,118,0.0,3.1,29,0.00,,,0.04,VWS V13.00,2013-01-11 18:54:00,
2013-01-11 13:59:00,39.9,11.0,29.88,ESE,116,0.0,0.0,30,0.00,,,0.04,VWS V13.00,2013-01-11 18:59:00,
2013-01-11 14:04:00,39.7,10.9,29.88,West,281,0.0,0.0,30,0.00,,,0.04,VWS V13.00,2013-01-11 19:04:00,
2013-01-11 14:09:00,39.7,11.6,29.88,SSE,157,0.0,0.0,31,0.00,,,0.04,VWS V13.00,2013-01-11 19:09:00,
2013-01-11 14:14:00,39.4,12.0,29.88,SSW,196,0.0,3.6,32,0.00,,,0.04,VWS V13.00,2013-01-11 19:14:00,
2013-01-11 14:19:00,39.2,12.5,29.88,South,179,0.0,0.0,33,0.00,,,0.04,VWS V13.00,2013-01-11 19:19:00,
2013-01-11 14:24:00,38.7,12.7,29.88,South,190,0.0,3.1,34,0.00,,,0.04,VWS V13.00,2013-01-11 19:24:00,
2013-01-11 14:29:00,38.1,13.5,29.88,SSE,149,0.0,3.1,36,0.00,,,0.04,VWS V13.00,2013-01-11 19:29:00,
2013-01-11 14:34:00,37.9,14.6,29.88,West,259,0.0,3.1,38,0.00,,,0.04,VWS V13.00,2013-01-11 19:34:00,
2013-01-11 14:39:00,37.8,13.8,29.88,SE,139,0.0,4.0,37,0.00,,,0.04,VWS V13.00,2013-01-11 19:39:00,
2013-01-11 14:44:00,37.6,14.3,29.88,SE,138,0.0,4.0,38,0.00,,,0.04,VWS V13.00,2013-01-11 19:44:00,
2013-01-11 14:49:00,37.8,13.8,29.88,WSW,243,0.0,4.0,37,0.00,,,0.04,VWS V13.00,2013-01-11 19:49:00,
2013-01-11 14:54:00,37.8,13.8,29.88,South,182,0.0,4.0,37,0.00,,,0.04,VWS V13.00,2013-01-11 19:54:00,
2013-01-11 14:59:00,37.9,12.7,29.88,SE,130,0.0,5.4,35,0.00,,,0.04,VWS V13.00,2013-01-11 19:59:00,
2013-01-11 15:04:00,37.9,13.4,29.88,SSE,149,0.0,5.4,36,0.00,,,0.04,VWS V13.00,2013-01-11 20:04:00,
2013-01-11 15:09:00,38.1,14.2,29.88,WSW,247,0.0,5.4,37,0.00,,,0.04,VWS V13.00,2013-01-11 20:09:00,
2013-01-11 15:14:00,38.1,14.8,29.88,WSW,248,3.6,9.6,38,0.00,,,0.04,VWS V13.00,2013-01-11 20:14:00,
2013-01-11 15:19:00,37.9,15.2,29.88,West,264,3.1,6.9,39,0.00,,,0.04,VWS V13.00,2013-01-11 20:19:00,
2013-01-11 15:24:00,37.6,15.5,29.88,NNW,343,0.0,7.4,40,0.00,,,0.04,VWS V13.00,2013-01-11 20:24:00,
2013-01-11 15:29:00,37.6,16.0,29.88,SSE,156,0.0,9.2,41,0.00,,,0.04,VWS V13.00,2013-01-11 20:29:00,
2013-01-11 15:34:00,37.4,17.0,29.88,SSW,208,0.0,9.2,43,0.00,,,0.04,VWS V13.00,2013-01-11 20:34:00,
2013-01-11 15:39:00,37.0,18.2,29.85,SSE,147,0.0,0.0,46,0.00,,,0.04,VWS V13.00,2013-01-11 20:39:00,
2013-01-11 15:44:00,36.7,18.9,29.85,South,171,0.0,4.5,48,0.00,,,0.04,VWS V13.00,2013-01-11 20:44:00,
2013-01-11 15:49:00,36.7,19.8,29.85,SSE,149,0.0,5.8,50,0.00,,,0.04,VWS V13.00,2013-01-11 20:49:00,
2013-01-11 15:54:00,36.5,19.6,29.85,SSE,148,0.0,5.8,50,0.00,,,0.04,VWS V13.00,2013-01-11 20:54:00,
2013-01-11 15:59:00,36.3,19.9,29.85,SE,138,0.0,0.0,51,0.00,,,0.04,VWS V13.00,2013-01-11 20:59:00,
2013-01-11 16:04:00,36.5,20.6,29.85,ESE,109,0.0,5.4,52,0.00,,,0.04,VWS V13.00,2013-01-11 21:04:00,
2013-01-11 16:09:00,36.9,20.9,29.85,SE,128,0.0,5.4,52,0.00,,,0.04,VWS V13.00,2013-01-11 21:09:00,
2013-01-11 16:14:00,36.9,20.9,29.85,South,169,3.1,6.9,52,0.00,,,0.04,VWS V13.00,2013-01-11 21:14:00,
2013-01-11 16:19:00,37.2,20.8,29.85,SSE,166,0.0,6.3,51,0.00,,,0.04,VWS V13.00,2013-01-11 21:19:00,
2013-01-11 16:24:00,37.4,21.4,29.85,SE,139,0.0,6.9,52,0.00,,,0.04,VWS V13.00,2013-01-11 21:24:00,
2013-01-11 16:29:00,37.6,21.6,29.85,WSW,255,0.0,9.6,52,0.00,,,0.04,VWS V13.00,2013-01-11 21:29:00,
2013-01-11 16:34:00,37.8,21.7,29.85,South,187,0.0,9.6,52,0.00,,,0.04,VWS V13.00,2013-01-11 21:34:00,
2013-01-11 16:39:00,37.6,22.0,29.85,SE,146,2.7,6.9,53,0.00,,,0.04,VWS V13.00,2013-01-11 21:39:00,
2013-01-11 16:44:00,37.4,22.3,29.85,SSE,149,0.0,6.9,54,0.00,,,0.04,VWS V13.00,2013-01-11 21:44:00,
2013-01-11 16:49:00,37.4,22.3,29.85,SE,136,0.0,7.8,54,0.00,,,0.04,VWS V13.00,2013-01-11 21:49:00,
2013-01-11 16:54:00,37.4,22.3,29.85,SW,216,0.0,7.8,54,0.00,,,0.04,VWS V13.00,2013-01-11 21:54:00,
2013-01-11 16:59:00,37.8,22.2,29.85,SE,139,0.0,5.4,53,0.00,,,0.04,VWS V13.00,2013-01-11 21:59:00,
2013-01-11 17:04:00,37.6,22.0,29.85,South,182,0.0,7.4,53,0.00,,,0.04,VWS V13.00,2013-01-11 22:04:00,
2013-01-11 17:09:00,37.9,21.9,29.85,SSE,156,0.0,7.4,52,0.00,,,0.04,VWS V13.00,2013-01-11 22:09:00,
2013-01-11 17:15:00,38.1,22.1,29.85,ENE,77,0.0,7.4,52,0.00,,,0.04,VWS V13.00,2013-01-11 22:15:00,
2013-01-11 17:20:00,38.3,21.3,29.85,SW,228,0.0,3.6,50,0.00,,,0.04,VWS V13.00,2013-01-11 22:20:00,
2013-01-11 17:25:00,38.3,21.8,29.85,SE,139,0.0,6.7,51,0.00,,,0.04,VWS V13.00,2013-01-11 22:25:00,
2013-01-11 17:30:00,38.1,21.1,29.85,WSW,249,8.3,8.3,50,0.00,,,0.04,VWS V13.00,2013-01-11 22:30:00,
2013-01-11 17:35:00,38.1,21.1,29.85,SE,134,0.0,8.3,50,0.00,,,0.04,VWS V13.00,2013-01-11 22:35:00,
2013-01-11 17:40:00,37.9,21.0,29.85,SSE,161,2.7,4.9,50,0.00,,,0.04,VWS V13.00,2013-01-11 22:40:00,
2013-01-11 17:45:00,37.8,21.3,29.85,SE,137,0.0,4.9,51,0.00,,,0.04,VWS V13.00,2013-01-11 22:45:00,
2013-01-11 17:50:00,37.6,21.1,29.85,SSW,192,0.0,6.7,51,0.00,,,0.04,VWS V13.00,2013-01-11 22:50:00,
2013-01-11 17:55:00,37.4,21.4,29.82,SSE,159,3.6,6.7,52,0.00,,,0.04,VWS V13.00,2013-01-11 22:55:00,
2013-01-11 18:00:00,37.2,21.2,29.82,SSE,152,0.0,6.3,52,0.00,,,0.04,VWS V13.00,2013-01-11 23:00:00,
2013-01-11 18:05:00,37.0,21.5,29.82,SE,142,0.0,6.3,53,0.00,,,0.04,VWS V13.00,2013-01-11 23:05:00,
2013-01-11 18:10:00,36.9,21.3,29.82,ESE,121,0.0,6.9,53,0.00,,,0.04,VWS V13.00,2013-01-11 23:10:00,
2013-01-11 18:15:00,36.7,21.6,29.82,South,174,0.0,6.9,54,0.00,,,0.04,VWS V13.00,2013-01-11 23:15:00,
2013-01-11 18:20:00,36.9,21.8,29.82,South,171,4.0,8.7,54,0.00,,,0.04,VWS V13.00,2013-01-11 23:20:00,
2013-01-11 18:25:00,36.7,21.6,29.82,South,178,0.0,8.7,54,0.00,,,0.04,VWS V13.00,2013-01-11 23:25:00,
2013-01-11 18:30:00,36.9,22.2,29.82,ESE,109,0.0,8.7,55,0.00,,,0.04,VWS V13.00,2013-01-11 23:30:00,
2013-01-11 18:35:00,36.7,22.5,29.82,SE,132,3.1,8.7,56,0.00,,,0.04,VWS V13.00,2013-01-11 23:35:00,
2013-01-11 18:40:00,37.0,22.4,29.82,South,179,0.0,4.5,55,0.00,,,0.04,VWS V13.00,2013-01-11 23:40:00,
2013-01-11 18:45:00,37.0,22.4,29.82,East,93,0.0,6.7,55,0.00,,,0.04,VWS V13.00,2013-01-11 23:45:00,
2013-01-11 18:50:00,36.9,22.6,29.82,East,91,0.0,6.7,56,0.00,,,0.04,VWS V13.00,2013-01-11 23:50:00,
2013-01-11 18:55:00,36.7,22.9,29.82,SSW,197,0.0,6.7,57,0.00,,,0.04,VWS V13.00,2013-01-11 23:55:00,
2013-01-11 19:00:00,36.9,23.5,29.82,SE,145,0.0,6.7,58,0.00,,,0.04,VWS V13.00,2013-01-12 00:00:00,
2013-01-11 19:05:00,36.9,23.5,29.82,NE,48,0.0,6.7,58,0.00,,,0.04,VWS V13.00,2013-01-12 00:05:00,
2013-01-11 19:10:00,37.0,24.1,29.82,ESE,120,0.0,9.6,59,0.00,,,0.04,VWS V13.00,2013-01-12 00:10:00,
2013-01-11 19:15:00,37.0,24.5,29.82,SSE,148,4.9,9.6,60,0.00,,,0.04,VWS V13.00,2013-01-12 00:15:00,
2013-01-11 19:20:00,37.0,24.5,29.82,SSW,201,0.0,5.8,60,0.00,,,0.04,VWS V13.00,2013-01-12 00:20:00,
2013-01-11 19:25:00,37.2,24.6,29.82,South,188,0.0,5.8,60,0.00,,,0.04,VWS V13.00,2013-01-12 00:25:00,
2013-01-11 19:30:00,37.4,25.2,29.82,South,186,0.0,7.4,61,0.00,,,0.04,VWS V13.00,2013-01-12 00:30:00,
2013-01-11 19:35:00,37.6,25.0,29.82,SE,127,0.0,7.4,60,0.00,,,0.04,VWS V13.00,2013-01-12 00:35:00,
2013-01-11 19:40:00,37.4,24.8,29.82,SSE,157,0.0,0.0,60,0.00,,,0.04,VWS V13.00,2013-01-12 00:40:00,
2013-01-11 19:45:00,37.4,25.6,29.82,SW,231,0.0,2.7,62,0.00,,,0.04,VWS V13.00,2013-01-12 00:45:00,
2013-01-11 19:50:00,37.6,26.1,29.82,South,187,0.0,10.5,63,0.00,,,0.04,VWS V13.00,2013-01-12 00:50:00,
2013-01-11 19:55:00,37.4,26.0,29.82,SSE,162,0.0,10.5,63,0.00,,,0.04,VWS V13.00,2013-01-12 00:55:00,
2013-01-11 20:00:00,37.4,26.4,29.82,ESE,119,0.0,2.7,64,0.00,,,0.04,VWS V13.00,2013-01-12 01:00:00,
2013-01-11 20:06:00,37.4,26.4,29.82,NNW,342,0.0,4.0,64,0.00,,,0.04,VWS V13.00,2013-01-12 01:06:00,
2013-01-11 20:11:00,37.2,26.5,29.82,SE,142,0.0,4.0,65,0.00,,,0.04,VWS V13.00,2013-01-12 01:11:00,
2013-01-11 20:16:00,37.0,26.8,29.82,ESE,120,0.0,4.0,66,0.00,,,0.04,VWS V13.00,2013-01-12 01:16:00,
2013-01-11 20:21:00,37.0,27.1,29.82,SSE,158,0.0,0.0,67,0.00,,,0.04,VWS V13.00,2013-01-12 01:21:00,
2013-01-11 20:26:00,37.2,27.6,29.82,SSE,147,0.0,5.8,68,0.00,,,0.04,VWS V13.00,2013-01-12 01:26:00,
2013-01-11 20:31:00,37.2,27.6,29.82,SSE,158,0.0,5.8,68,0.00,,,0.04,VWS V13.00,2013-01-12 01:31:00,
2013-01-11 20:36:00,37.2,27.6,29.82,SSE,148,0.0,5.8,68,0.00,,,0.04,VWS V13.00,2013-01-12 01:36:00,
2013-01-11 20:41:00,37.4,28.2,29.79,SSE,151,0.0,3.6,69,0.00,,,0.04,VWS V13.00,2013-01-12 01:41:00,
2013-01-11 20:46:00,37.4,28.2,29.79,WSW,239,0.0,3.6,69,0.00,,,0.04,VWS V13.00,2013-01-12 01:46:00,
2013-01-11 20:51:00,37.2,28.0,29.79,WNW,283,0.0,3.6,69,0.00,,,0.04,VWS V13.00,2013-01-12 01:51:00,
2013-01-11 20:56:00,37.0,27.8,29.79,SSE,154,0.0,3.6,69,0.00,,,0.04,VWS V13.00,2013-01-12 01:56:00,
2013-01-11 21:01:00,36.9,27.7,29.79,SSE,159,0.0,0.0,69,0.00,,,0.04,VWS V13.00,2013-01-12 02:01:00,
2013-01-11 21:06:00,37.0,28.5,29.79,SE,146,0.0,0.0,71,0.00,,,0.04,VWS V13.00,2013-01-12 02:06:00,
2013-01-11 21:11:00,37.4,28.9,29.82,SE,129,0.0,2.7,71,0.00,,,0.04,VWS V13.00,2013-01-12 02:11:00,
2013-01-11 21:16:00,37.6,28.7,29.82,SSW,193,0.0,2.7,70,0.00,,,0.04,VWS V13.00,2013-01-12 02:16:00,
2013-01-11 21:21:00,37.8,28.5,29.82,SW,224,0.0,0.0,69,0.00,,,0.04,VWS V13.00,2013-01-12 02:21:00,
2013-01-11 21:26:00,37.8,27.8,29.82,SSE,161,0.0,0.0,67,0.00,,,0.04,VWS V13.00,2013-01-12 02:26:00,
2013-01-11 21:31:00,37.9,27.6,29.82,South,177,0.0,4.5,66,0.00,,,0.04,VWS V13.00,2013-01-12 02:31:00,
2013-01-11 21:36:00,37.8,27.4,29.82,SSW,202,0.0,4.5,66,0.00,,,0.04,VWS V13.00,2013-01-12 02:36:00,
2013-01-11 21:41:00,37.8,27.4,29.79,SW,232,0.0,3.1,66,0.00,,,0.04,VWS V13.00,2013-01-12 02:41:00,
2013-01-11 21:46:00,37.9,27.2,29.79,SW,219,8.3,10.1,65,0.00,,,0.04,VWS V13.00,2013-01-12 02:46:00,
2013-01-11 21:51:00,38.1,27.0,29.79,SSE,166,0.0,10.1,64,0.00,,,0.04,VWS V13.00,2013-01-12 02:51:00,
2013-01-11 21:56:00,37.9,26.9,29.82,SSE,161,0.0,10.1,64,0.00,,,0.04,VWS V13.00,2013-01-12 02:56:00,
2013-01-11 22:01:00,38.1,27.0,29.82,SSE,161,0.0,3.1,64,0.04,,,0.08,VWS V13.00,2013-01-12 03:01:00,
2013-01-11 22:06:00,38.1,27.4,29.82,SE,146,0.0,4.0,65,0.04,,,0.08,VWS V13.00,2013-01-12 03:06:00,
2013-01-11 22:12:00,38.1,27.8,29.82,WSW,258,2.7,4.0,66,0.04,,,0.08,VWS V13.00,2013-01-12 03:12:00,
2013-01-11 22:17:00,38.1,27.8,29.82,South,170,0.0,6.3,66,0.04,,,0.08,VWS V13.00,2013-01-12 03:17:00,
2013-01-11 22:22:00,38.1,28.1,29.82,SE,146,0.0,0.0,67,0.04,,,0.08,VWS V13.00,2013-01-12 03:22:00,
2013-01-11 22:27:00,37.9,28.7,29.79,South,189,0.0,0.0,69,0.04,,,0.08,VWS V13.00,2013-01-12 03:27:00,
2013-01-11 22:32:00,38.1,28.9,29.79,ESE,113,0.0,0.0,69,0.04,,,0.08,VWS V13.00,2013-01-12 03:32:00,
2013-01-11 22:37:00,38.3,29.0,29.79,SE,128,0.0,5.4,69,0.04,,,0.08,VWS V13.00,2013-01-12 03:37:00,
2013-01-11 22:42:00,38.1,28.5,29.79,South,182,0.0,0.0,68,0.04,,,0.08,VWS V13.00,2013-01-12 03:42:00,
2013-01-11 22:47:00,38.1,28.9,29.79,South,174,0.0,2.7,69,0.04,,,0.08,VWS V13.00,2013-01-12 03:47:00,
2013-01-11 22:52:00,38.1,28.9,29.79,West,263,0.0,2.7,69,0.04,,,0.08,VWS V13.00,2013-01-12 03:52:00,
2013-01-11 22:57:00,38.1,28.9,29.79,South,176,0.0,2.7,69,0.04,,,0.08,VWS V13.00,2013-01-12 03:57:00,
2013-01-11 23:02:00,38.1,29.2,29.79,SW,219,3.1,3.6,70,0.04,,,0.08,VWS V13.00,2013-01-12 04:02:00,
2013-01-11 23:07:00,38.1,28.9,29.79,South,176,0.0,3.6,69,0.04,,,0.08,VWS V13.00,2013-01-12 04:07:00,
2013-01-11 23:12:00,37.6,27.6,29.79,South,176,0.0,3.6,67,0.04,,,0.08,VWS V13.00,2013-01-12 04:12:00,
2013-01-11 23:17:00,37.2,28.4,29.79,SW,225,0.0,3.6,70,0.04,,,0.08,VWS V13.00,2013-01-12 04:17:00,
2013-01-11 23:22:00,37.2,28.7,29.79,SSW,196,0.0,0.0,71,0.00,,,0.08,VWS V13.00,2013-01-12 04:22:00,
2013-01-11 23:27:00,37.2,29.0,29.79,ESE,110,0.0,0.0,72,0.00,,,0.08,VWS V13.00,2013-01-12 04:27:00,
2013-01-11 23:32:00,37.0,28.9,29.79,NW,315,0.0,0.0,72,0.00,,,0.08,VWS V13.00,2013-01-12 04:32:00,
2013-01-11 23:37:00,36.9,28.7,29.79,NE,46,0.0,0.0,72,0.00,,,0.08,VWS V13.00,2013-01-12 04:37:00,
2013-01-11 23:42:00,36.7,29.2,29.79,SSE,156,0.0,0.0,74,0.00,,,0.08,VWS V13.00,2013-01-12 04:42:00,
2013-01-11 23:47:00,36.9,29.7,29.79,SSE,167,0.0,0.0,75,0.00,,,0.08,VWS V13.00,2013-01-12 04:47:00,
2013-01-11 23:52:00,36.9,29.7,29.79,West,266,0.0,0.0,75,0.00,,,0.08,VWS V13.00,2013-01-12 04:52:00,
2013-01-11 23:57:00,37.6,31.0,29.79,WSW,244,0.0,0.0,77,0.00,,,0.08,VWS V13.00,2013-01-12 04:57:00,